This is the latest recevied weather packets stored in our database for station/object KE5KUL-13. If no packets are shown the sender has not sent any weather packets the latest 1 day(s).
| Time | Temp. | Humidity | Pressure | Rain* | Wind** | Luminosity | Snow |
|---|---|---|---|---|---|---|---|
| 1778093119 | 17.22° C | 44% | 1018.3 hPa | 0 mm | - | - | - |
| 1778078418 | 8.33° C | 66% | 1016.6 hPa | 0 mm | - | - | - |
| 1778077818 | 7.78° C | 66% | 1016.5 hPa | 0 mm | - | - | - |
| 1778076618 | 7.78° C | 67% | 1016.2 hPa | 0 mm | - | - | - |
| 1778076018 | 7.22° C | 67% | 1016.2 hPa | 0 mm | - | - | - |
| 1778074818 | 7.22° C | 68% | 1016.5 hPa | 0 mm | - | - | - |
| 1778074218 | 6.67° C | 69% | 1016.5 hPa | 0 mm | - | - | - |
| 1778072418 | 6.11° C | 70% | 1017.1 hPa | 0 mm | - | - | - |
| 1778071818 | 6.11° C | 70% | 1017 hPa | 0 mm | - | - | - |
| 1778071218 | 6.11° C | 72% | 1016.9 hPa | 0 mm | - | - | - |
| 1778070018 | 5.56° C | 72% | 1017 hPa | 0 mm | - | - | - |
| 1778069418 | 5.56° C | 72% | 1016.5 hPa | 0 mm | - | - | - |
| 1778068218 | 5.56° C | 73% | 1016.1 hPa | 0 mm | - | - | - |
| 1778067618 | 5.56° C | 74% | 1016.2 hPa | 0 mm | - | - | - |
| 1778067018 | 5.56° C | 78% | 1016 hPa | 0 mm | - | - | - |
| 1778064618 | 5.56° C | 82% | 1016.2 hPa | 0 mm | - | - | - |
| 1778062218 | 6.67° C | 78% | 1016.1 hPa | 0 mm | - | - | - |
| 1778060717 | 6.67° C | 78% | 1015.8 hPa | 0 mm | - | - | - |
| 1778058917 | 7.22° C | 77% | 1015.2 hPa | 0 mm | - | - | - |
| 1778058317 | 7.22° C | 76% | 1014.9 hPa | 0 mm | - | - | - |
| 1778057117 | 7.22° C | 75% | 1015.4 hPa | 0 mm | - | - | - |
| 1778055317 | 6.67° C | 76% | 1014.5 hPa | 0 mm | - | - | - |
| 1778054717 | 6.67° C | 77% | 1014.8 hPa | 0 mm | - | - | - |
| 1778054117 | 6.11° C | 77% | 1014.2 hPa | 0 mm | - | - | - |
| 1778052317 | 6.67° C | 76% | 1013.7 hPa | 0 mm | - | - | - |
* Rain latest hour (hover to see other rain measurements)
** Current wind speed in m/s (hover to see current wind gust speed)